Theta_e
307 306 306 305 305 305 304 305 306 306 306 308 307 307 307 307 308 311 311 313 310 299 305 309 309 304 304 300 293 299 295 293 289 282 278 279 282 284 284 290 285 283 279 276 277 271 276 295 295 287 290 294 294 293
306 305 305 305 304 304 304 304 304 306 308 308 307 307 307 307 308 312 307 314 315 307 306 310 310 310 311 308 303 299 296 297 294 288 284 288 285 287 283 281 292 284 287 283 285 284 291 296 294 296 297 293 293 293
305 305 305 304 304 303 304 303 303 306 307 308 308 307 307 307 309 313 311 312 308 299 303 305 304 310 312 311 312 299 298 305 301 296 291 285 281 287 282 284 287 292 296 287 288 293 295 295 296 296 296 294 295 296
305 304 304 304 304 304 305 305 306 306 306 307 307 306 307 307 309 312 310 311 304 298 288 299 309 306 311 312 313 310 307 304 300 295 290 289 283 292 283 286 287 290 295 291 288 293 294 295 294 294 294 295 295 295
304 304 304 304 304 304 305 305 305 305 306 306 307 307 307 307 309 313 311 309 310 300 292 291 305 308 308 310 310 309 306 302 295 289 287 287 287 288 283 287 285 296 292 286 286 294 293 292 293 294 294 293 294 293
303 303 303 303 304 304 304 304 305 305 305 305 306 307 306 306 310 310 302 310 308 307 294 287 301 301 304 308 307 306 306 302 297 292 288 293 299 289 286 286 294 298 299 298 295 296 294 293 294 296 294 294 295 290
302 302 303 303 303 303 304 304 304 304 304 305 305 304 304 306 306 303 298 305 305 304 292 288 287 297 301 303 300 300 300 298 298 290 288 289 291 292 285 284 293 296 297 296 295 294 290 291 292 297 296 293 290 288
301 301 302 302 303 303 303 303 304 304 304 305 305 304 304 306 306 304 304 304 304 297 292 286 289 288 298 289 289 294 290 292 294 293 289 286 289 287 286 292 295 296 295 294 294 295 294 295 296 295 293 289 287 286
301 301 301 301 302 303 303 303 304 304 305 305 306 305 305 302 300 302 302 302 303 298 287 283 283 284 296 292 289 288 292 286 291 287 288 288 287 286 291 293 294 294 293 293 296 296 296 295 292 289 287 287 286 285
300 300 300 301 301 302 303 303 304 304 305 305 304 298 290 296 302 303 299 293 291 290 289 284 288 287 293 286 286 286 286 286 285 285 291 286 287 290 292 294 294 294 295 297 293 289 288 286 287 287 287 287 285 284
300 300 300 301 302 302 302 303 303 304 304 302 294 289 296 301 298 292 287 287 288 288 288 291 287 289 293 286 286 285 285 285 283 284 286 284 285 288 291 292 295 295 295 294 291 289 289 288 286 286 285 285 283 283
300 300 300 300 301 301 302 301 301 299 298 299 297 298 296 290 287 287 286 286 286 287 287 287 287 290 288 289 287 286 285 285 281 286 285 282 286 289 291 293 294 292 290 289 289 288 287 287 286 284 283 282 283 282
300 299 299 299 300 300 300 300 300 300 299 297 291 287 289 286 286 286 285 284 285 285 286 286 286 286 287 288 285 285 284 283 287 284 281 283 289 291 291 288 288 288 287 287 288 288 286 285 285 283 282 283 278 281
299 299 298 298 299 299 299 300 299 298 294 287 286 283 285 282 283 283 284 285 285 285 285 285 285 285 285 285 285 283 284 284 281 276 274 286 290 291 290 288 286 285 282 284 284 285 283 283 281 279 277 278 275 279
300 299 299 298 299 299 299 299 299 296 290 285 286 281 281 283 284 285 285 285 285 286 286 285 285 285 284 283 284 282 280 278 280 279 283 286 289 287 287 287 285 283 281 283 284 281 278 277 278 281 281 281 282 279
299 298 296 298 298 298 298 296 293 290 286 284 285 282 284 284 284 285 285 284 286 285 286 285 284 283 281 282 280 280 279 277 279 284 286 288 287 286 285 285 284 285 283 283 283 283 283 278 277 282 283 281 279 278
299 295 298 299 298 298 297 291 286 286 284 284 283 286 285 285 284 285 285 285 287 286 283 284 279 277 282 279 279 282 279 282 285 285 287 287 286 285 284 285 283 284 285 284 284 284 284 284 280 279 280 284 283 283
293 297 298 298 297 296 291 288 285 282 282 284 283 283 284 284 284 285 285 285 283 282 281 279 282 278 278 277 279 282 283 284 285 286 286 286 286 285 286 285 286 285 284 284 283 283 283 280 281 283 283 284 283 282
294 295 297 297 295 288 283 284 285 280 282 283 283 284 284 284 284 285 284 284 282 283 282 280 276 275 277 281 281 281 281 282 283 284 284 285 285 285 285 285 285 284 284 284 283 283 283 284 283 284 283 281 280 279
295 295 295 296 296 286 280 281 286 281 280 283 284 283 282 282 283 285 283 284 284 283 276 275 277 279 280 281 283 282 284 284 283 281 282 283 284 285 284 283 283 284 283 284 283 279 282 283 283 282 281 280 277 278
292 292 293 293 288 287 283 281 281 283 284 283 283 281 281 283 282 283 283 283 274 274 277 279 277 280 283 282 284 283 283 283 282 280 279 280 282 281 283 282 283 282 280 280 278 281 277 279 282 283 282 279 280 278
290 292 287 289 285 280 278 283 281 281 283 283 282 282 280 279 280 281 283 279 278 278 280 279 282 282 283 282 282 282 283 283 283 281 280 280 280 280 280 280 280 278 276 276 279 279 279 281 282 283 284 283 281 284
291 289 285 284 280 276 275 283 281 282 279 280 281 279 279 279 281 280 279 279 280 281 281 282 283 284 282 281 280 280 280 280 279 278 279 279 279 277 277 277 278 276 276 277 279 278 276 277 280 281 282 283 284 283
290 284 281 275 282 277 277 278 277 277 275 279 278 274 274 276 275 276 270 278 281 280 280 280 281 281 281 280 277 276 277 278 277 277 277 276 275 276 277 277 278 275 274 275 274 274 274 274 276 277 279 281 280 279
279 277 275 272 278 277 276 272 269 270 268 270 269 267 271 272 267 267 268 278 278 277 277 278 278 278 277 276 276 276 277 276 274 274 275 276 274 272 272 273 272 272 271 270 269 269 269 270 272 272 275 277 277 276
275 272 272 273 272 274 273 267 268 268 269 268 267 271 270 267 266 266 276 276 276 277 273 277 275 274 274 275 274 274 273 274 273 271 273 274 272 268 266 266 266 267 269 268 268 267 267 268 269 270 271 273 276 276
272 269 277 281 281 279 273 273 276 273 268 267 271 269 265 265 263 274 276 276 276 277 277 277 276 275 274 274 275 272 271 270 269 270 272 272 270 269 266 264 264 266 267 266 266 266 265 266 267 268 269 271 274 275
275 276 272 277 279 279 275 274 274 272 273 276 272 268 267 266 270 273 275 276 275 276 276 275 274 274 273 272 271 267 265 264 266 266 268 268 266 262 262 261 262 267 262 263 264 265 264 264 265 266 269 270 272 269
273 277 276 275 277 276 274 274 275 279 280 278 271 270 271 272 270 272 273 274 274 274 271 269 266 264 265 265 264 263 259 260 261 257 254 254 257 260 261 259 260 263 262 262 264 265 264 265 266 267 270 267 266 265
276 281 277 275 274 275 277 279 279 280 279 276 274 273 271 269 270 271 270 269 269 268 265 264 259 261 255 256 256 259 261 259 257 257 255 254 260 262 258 259 261 261 261 262 261 261 262 262 265 268 267 266 264 263
279 278 277 276 276 277 278 279 280 280 280 278 276 269 265 264 265 266 266 265 262 261 261 257 258 253 256 256 256 253 255 258 256 258 258 257 257 255 256 257 258 259 260 261 259 259 260 260 263 263 262 261 260 260
277 276 275 272 274 276 279 278 278 278 274 276 270 268 260 258 257 259 263 262 259 258 254 253 254 256 257 258 255 254 256 254 254 255 260 258 256 255 256 256 256 258 256 254 254 257 260 258 258 258 258 258 257 257
271 262 261 262 265 268 264 263 262 265 261 265 266 263 260 261 258 260 261 258 258 256 255 254 253 253 256 255 254 254 255 253 254 260 261 262 257 257 255 253 253 250 250 251 253 256 253 253 255 255 256 255 255 255
Wind_Speed
19 20 20 18 17 16 14 12 11 9 5 4 7 8 10 9 9 4 1 2 5 4 3 5 4 4 4 4 6 5 6 5 4 5 5 4 3 5 2 5 7 8 7 4 3 2 9 7 4 8 7 4 6 6
21 20 20 18 17 15 14 13 11 9 5 6 8 9 10 10 8 3 3 3 2 6 3 1 3 3 4 2 7 2 6 4 5 6 1 3 2 2 2 3 3 3 9 8 11 9 6 6 4 2 5 6 5 6
20 21 20 18 17 15 14 13 11 8 7 7 8 9 10 11 9 6 3 2 5 5 4 5 4 6 7 5 2 7 3 5 4 4 5 3 3 4 4 6 3 4 5 3 4 4 5 4 3 4 5 5 5 4
20 20 19 18 16 14 12 12 10 9 8 7 7 9 11 12 11 7 4 2 5 5 6 3 2 4 6 7 6 4 8 7 7 4 4 4 3 4 4 4 4 6 5 4 3 3 5 2 2 6 5 6 5 5
21 19 18 17 15 13 13 11 10 9 8 7 8 9 10 11 10 8 4 4 2 6 5 2 2 5 5 6 9 8 8 6 3 3 3 4 2 3 1 3 4 5 6 5 7 6 4 5 8 6 6 5 6 5
16 17 16 15 14 14 13 12 11 10 9 8 8 8 8 8 5 4 5 4 5 2 6 3 3 6 7 7 10 8 4 4 4 4 3 2 3 4 3 4 7 4 2 4 5 3 2 7 7 5 6 7 6 6
23 17 13 14 13 13 13 12 12 10 9 8 8 9 9 8 5 4 4 3 6 2 6 3 4 5 4 4 4 4 4 2 3 2 1 2 1 4 3 5 5 5 5 6 10 10 6 3 5 7 4 5 8 7
22 21 18 14 12 11 12 12 12 10 9 7 7 8 12 14 9 5 4 7 5 7 5 5 1 5 4 3 2 3 3 3 4 1 2 2 2 2 4 7 4 4 7 6 5 2 5 7 9 7 5 6 7 6
18 18 16 14 12 11 12 12 13 11 9 7 6 7 5 7 4 1 10 10 4 5 5 3 6 5 2 2 1 4 2 2 2 1 1 3 2 6 6 4 4 7 9 10 6 7 9 8 7 8 7 6 6 4
15 14 12 12 11 10 11 11 12 11 8 6 6 5 3 2 7 6 7 5 6 4 4 2 2 2 4 1 2 3 2 1 1 4 1 2 5 5 6 4 4 6 7 9 13 8 8 8 7 5 6 4 4 2
14 14 13 12 10 10 11 12 11 12 7 3 3 2 3 6 3 4 3 3 1 1 1 1 3 4 2 4 3 1 2 1 3 4 3 3 3 3 4 6 6 9 11 11 11 11 10 7 5 5 4 4 2 2
15 16 17 16 15 13 14 14 9 5 2 3 5 4 3 5 4 4 2 1 1 3 1 2 1 2 1 2 3 1 3 2 5 3 2 3 1 1 5 7 8 9 13 14 13 9 6 7 5 4 1 2 2 3
14 15 17 17 17 17 18 18 18 14 4 3 6 5 2 3 2 6 6 2 3 2 2 1 1 1 2 3 3 2 5 5 2 3 3 2 5 4 6 8 9 9 11 9 7 6 6 4 3 1 2 3 4 4
13 13 14 14 13 12 11 10 9 7 6 5 3 4 1 1 1 1 1 2 0 2 2 2 2 2 1 2 2 3 1 1 2 2 4 1 7 7 6 5 7 5 6 7 6 5 3 1 3 3 4 4 3 5
9 10 10 12 11 11 10 9 7 3 4 3 2 3 2 2 2 1 1 1 3 1 2 2 3 2 1 2 0 2 1 2 1 1 1 2 2 3 4 5 7 6 3 4 2 2 3 3 3 5 5 5 5 6
5 5 6 10 12 11 9 7 6 4 4 3 3 3 2 2 1 1 1 2 2 1 2 2 2 2 1 1 1 2 3 3 1 1 2 4 5 3 5 5 5 3 1 2 3 3 4 4 5 6 5 5 5 5
7 4 3 9 11 10 8 4 4 6 3 3 2 2 2 4 3 1 1 1 0 1 1 2 3 2 0 1 1 3 2 2 2 3 1 1 4 6 5 4 3 1 2 2 2 4 4 5 4 2 5 7 6 6
4 4 7 11 8 4 3 4 4 4 5 2 2 2 2 2 2 2 1 2 2 2 2 2 3 2 2 2 2 4 3 2 2 3 4 4 5 4 3 0 2 2 3 4 5 5 4 4 6 6 7 7 5 5
7 6 11 12 6 3 4 5 4 4 3 2 2 2 2 2 1 1 1 3 0 1 3 3 4 1 2 2 2 1 1 2 3 2 1 2 2 2 3 5 5 5 6 5 5 4 4 7 6 6 5 3 4 4
11 14 13 11 8 4 5 4 3 4 2 1 2 2 2 1 2 2 3 3 3 2 4 2 2 2 3 1 1 2 1 1 3 2 2 3 3 4 3 3 3 5 4 5 5 4 4 5 5 5 4 5 4 5
7 7 11 7 4 4 2 2 4 1 3 3 2 2 1 1 1 2 1 2 4 1 0 2 2 2 0 2 2 2 3 3 2 3 3 1 4 3 4 5 6 4 4 5 5 7 5 4 7 8 6 5 4 4
2 7 3 5 4 5 4 2 2 2 2 3 2 3 2 2 1 1 1 2 1 3 2 1 1 2 3 5 6 6 4 7 7 6 7 6 6 5 6 5 6 5 3 3 5 7 7 8 9 9 9 9 7 7
4 3 3 2 3 4 4 2 2 2 3 2 2 2 1 2 1 1 2 2 1 3 3 3 3 6 11 7 8 11 11 8 6 6 5 4 3 3 3 4 5 6 7 7 7 7 8 12 12 12 13 13 9 7
2 3 1 1 2 1 2 0 2 2 3 2 3 2 2 3 1 2 2 1 2 3 4 6 4 7 6 9 9 8 7 5 4 3 5 5 5 5 5 6 6 6 7 7 8 9 9 10 14 13 13 11 4 3
3 2 4 2 1 2 2 1 2 3 3 3 3 1 3 2 2 1 3 2 2 2 3 6 7 6 6 6 4 5 8 6 4 3 5 5 3 4 5 5 5 5 8 9 10 10 10 10 11 12 13 12 13 9
2 3 4 5 2 3 4 3 4 6 3 2 2 2 2 3 3 3 1 2 2 3 2 5 4 3 6 4 3 4 4 4 2 2 5 6 6 5 5 6 6 5 9 8 10 11 12 12 12 15 14 15 15 14
2 4 2 1 1 1 2 1 1 4 2 4 3 2 4 3 4 2 2 3 2 3 4 5 4 4 3 3 5 4 3 4 3 2 1 6 6 7 7 6 9 8 9 10 10 10 12 13 14 13 14 13 13 8
3 3 4 1 1 1 2 1 1 2 2 1 4 2 6 5 2 2 3 1 2 6 6 6 6 5 6 4 4 3 4 4 4 4 3 3 3 1 2 1 2 8 5 7 9 9 11 12 13 14 15 13 8 6
0 2 3 2 1 1 2 3 2 1 2 2 4 2 3 3 3 2 2 3 3 4 4 5 4 3 4 4 4 3 2 3 7 6 5 4 5 5 2 3 4 6 6 8 12 13 15 13 14 13 11 8 7 7
1 1 2 1 1 1 2 3 2 3 3 3 4 4 3 3 3 4 3 4 5 5 4 4 1 5 3 3 3 5 4 3 3 4 1 3 4 5 4 6 8 8 7 8 9 12 14 12 12 6 8 6 5 5
1 2 1 2 2 2 2 1 0 1 2 3 4 5 3 2 2 3 3 2 4 4 5 4 4 3 4 4 2 2 4 3 4 4 3 2 2 3 4 5 5 5 6 7 8 8 9 7 6 6 7 7 8 7
4 4 2 2 1 1 1 0 0 0 1 2 3 4 3 4 2 3 3 3 4 5 2 3 4 3 2 0 1 1 2 2 3 3 5 2 3 4 4 4 4 4 4 6 5 6 7 6 4 6 5 7 7 7
2 4 3 3 4 4 4 4 4 2 5 3 2 3 2 4 3 3 2 2 4 4 3 3 3 2 1 3 3 1 2 3 5 6 7 5 4 4 3 3 3 3 4 5 5 5 6 6 5 6 6 6 6 6
Wind_Direction
148 144 135 135 131 131 142 143 143 128 106 52 28 18 16 13 15 82 216 360 113 101 345 11 19 106 95 105 132 205 53 350 50 69 115 204 178 230 136 176 176 167 150 190 104 86 279 193 88 168 203 136 148 158
141 136 133 133 130 137 145 145 141 129 108 61 36 25 16 6 4 97 73 336 58 82 153 38 99 35 49 173 127 59 153 159 162 93 123 134 197 177 138 231 132 213 189 181 181 210 230 207 214 65 122 134 162 159
135 136 135 134 136 144 148 141 140 134 99 65 44 30 16 4 11 101 112 358 56 83 10 43 359 331 22 9 198 117 318 150 117 140 150 165 185 140 172 236 199 251 154 199 97 244 204 142 74 89 111 130 152 147
134 135 136 137 140 141 138 133 131 119 97 70 47 33 18 12 24 75 78 342 77 99 105 285 324 18 337 8 43 86 125 64 92 76 109 144 172 180 216 207 186 202 155 184 251 352 63 327 173 148 127 122 130 153
136 136 137 137 137 135 131 131 127 117 99 72 48 34 19 17 29 76 76 30 44 117 150 241 330 345 359 26 62 63 87 96 100 81 102 205 205 102 285 62 259 184 189 165 227 201 170 200 165 149 137 162 168 161
113 124 126 128 133 135 132 131 122 110 96 76 49 30 15 14 50 52 38 360 6 55 95 85 304 14 356 56 58 48 49 79 90 125 197 238 265 109 148 217 261 225 211 195 212 110 85 115 129 136 161 179 192 142
76 86 109 123 129 132 132 125 116 111 103 88 64 36 31 52 71 82 151 279 332 41 82 47 350 327 346 42 35 23 21 58 103 132 148 180 355 92 157 221 236 235 150 117 123 111 64 176 176 177 160 144 103 99
70 68 72 93 117 123 121 119 116 114 109 99 83 78 78 84 105 43 354 341 349 87 61 111 211 10 345 21 37 354 34 8 20 102 18 163 28 90 252 248 273 109 118 132 160 90 147 148 144 151 120 116 106 105
71 70 71 72 84 117 118 123 115 113 113 108 82 62 46 32 49 311 323 321 36 97 119 103 144 216 19 50 49 21 54 42 331 96 250 90 207 225 234 248 273 172 175 170 148 121 128 130 113 107 108 102 113 122
63 55 56 66 87 100 125 121 116 119 119 75 42 48 28 322 313 325 3 24 19 351 46 130 123 158 93 60 22 79 12 142 181 246 101 187 252 290 276 272 270 150 145 144 131 112 105 95 96 99 96 106 107 90
59 56 55 56 79 105 114 124 119 105 48 46 77 92 248 314 48 34 63 83 297 52 30 142 152 135 343 117 166 153 170 154 231 237 185 232 260 281 0 92 86 91 89 83 84 83 74 109 125 114 94 77 52 283
56 54 61 65 70 80 93 95 85 63 66 107 117 95 38 33 41 96 160 49 130 208 9 139 107 99 47 93 100 211 164 143 238 139 206 250 313 72 85 85 88 89 96 90 90 117 115 102 100 97 83 315 271 278
61 54 56 59 66 71 78 85 84 100 92 35 48 59 65 339 145 197 185 188 152 167 184 150 78 96 37 50 90 143 189 212 108 183 233 251 110 88 75 75 77 92 101 112 106 86 79 96 110 164 267 269 257 278
66 54 53 55 57 58 72 95 99 68 59 57 50 90 109 166 52 116 64 87 231 112 100 80 74 98 35 91 119 191 185 95 204 204 237 202 116 143 146 133 122 89 76 89 75 55 42 330 276 280 243 253 250 272
57 52 49 26 30 37 47 58 81 63 83 86 61 82 81 111 80 55 41 77 5 82 84 72 63 80 56 94 35 102 90 217 207 49 13 333 202 128 106 96 108 112 99 77 66 15 311 288 265 278 275 261 245 255
32 64 27 12 18 22 18 30 35 62 61 72 51 93 92 92 102 95 62 74 2 51 59 62 123 104 76 126 146 228 166 57 57 287 228 145 145 104 112 110 111 109 75 344 333 297 283 273 259 265 279 274 268 247
40 36 27 2 353 342 16 68 48 53 87 76 51 37 60 65 70 54 68 76 122 69 102 95 82 190 100 67 70 31 80 134 212 260 24 112 158 139 127 121 126 71 346 299 274 282 273 274 279 288 277 275 264 259
42 19 34 7 354 360 23 57 79 74 68 47 82 46 54 39 87 45 43 23 92 147 101 190 124 96 131 152 146 196 198 231 194 164 162 162 140 141 151 155 320 338 323 307 291 281 270 282 279 267 262 266 275 273
63 37 19 5 6 58 53 7 70 88 64 88 73 32 59 65 24 341 18 342 134 122 95 41 71 163 228 212 168 198 161 160 154 160 142 101 118 57 23 16 352 336 320 304 301 281 267 262 255 265 261 256 245 243
46 30 14 6 25 53 38 349 50 89 107 159 74 61 56 59 328 337 11 15 47 44 40 73 201 224 166 230 147 135 122 114 103 70 16 19 24 47 22 348 314 297 295 302 300 287 298 304 289 271 255 231 210 244
22 355 13 20 18 55 87 359 30 102 143 85 124 90 94 347 13 342 47 44 47 141 4 233 221 264 31 91 83 87 61 84 108 138 181 4 4 25 10 1 356 353 359 336 324 323 321 293 304 306 280 273 266 257
22 24 43 16 40 2 55 328 136 259 89 128 106 123 131 160 172 188 32 61 237 250 224 182 143 111 80 47 41 30 14 57 54 55 42 36 36 30 22 6 358 348 334 312 342 335 329 325 321 314 290 279 268 263
55 35 48 48 64 47 264 15 87 112 134 176 78 91 133 180 159 61 202 214 164 14 337 16 14 61 93 73 70 50 37 49 54 40 33 30 39 36 8 350 348 9 6 356 345 340 330 323 321 321 313 296 276 257
12 56 85 106 97 112 8 238 357 84 46 149 159 189 199 171 81 115 214 119 77 349 18 18 61 102 85 62 57 44 29 28 37 46 35 25 22 9 13 26 44 33 10 339 345 340 333 331 329 328 328 325 340 303
50 322 94 333 6 135 148 356 320 71 182 208 99 280 236 88 100 155 200 105 86 47 21 44 53 56 84 82 72 58 39 18 9 13 25 15 38 38 31 26 16 33 11 351 345 339 332 328 327 326 319 336 328 309
213 256 145 190 244 162 181 170 203 195 147 125 205 215 60 91 89 231 86 85 68 37 11 68 68 78 72 59 74 57 25 357 355 40 32 57 52 53 25 10 359 358 5 345 330 331 328 324 322 324 319 319 316 313
224 257 253 197 244 29 25 322 79 105 151 170 175 112 85 153 234 111 99 20 68 43 63 66 68 70 77 62 85 67 40 29 42 321 341 89 73 61 50 17 356 342 333 332 326 326 323 320 316 317 310 315 316 309
213 164 168 220 235 144 138 64 136 184 230 179 89 146 164 182 155 43 62 37 54 91 74 61 54 61 66 59 75 73 33 0 357 10 39 53 60 75 57 328 283 321 314 318 314 321 318 313 310 306 303 300 314 17
11 319 88 61 353 35 155 177 215 18 329 142 119 117 100 59 351 44 36 47 51 78 78 71 18 32 42 43 41 45 67 61 51 44 23 320 337 328 357 332 331 335 333 322 319 324 318 313 308 303 333 61 48 39
283 291 107 99 123 111 49 341 58 339 25 90 101 104 87 67 15 1 38 48 65 76 72 84 58 64 58 53 360 357 11 28 68 110 75 304 309 322 343 338 335 330 327 322 323 320 320 329 321 12 19 36 35 40
322 343 103 103 67 47 43 347 314 355 6 73 45 87 112 135 17 13 32 41 91 76 74 55 39 23 42 13 70 48 339 329 8 350 318 276 317 322 304 304 300 304 310 319 318 316 320 318 351 10 25 32 35 39
7 7 34 76 84 283 279 284 147 155 139 104 71 86 47 64 57 315 323 72 61 63 55 103 70 324 296 207 78 143 113 278 311 308 332 319 293 292 295 298 307 314 326 320 316 318 337 5 4 11 18 29 31 31
30 25 34 61 16 4 311 68 10 11 24 54 28 115 109 122 155 232 305 75 140 158 171 209 227 241 188 139 152 256 331 294 310 335 334 332 323 320 318 322 355 359 355 343 336 339 5 18 20 17 21 30 30 25